Date String (YYYY-MM-DD hh:mm:ss) UTC,Instrument flags,Ambient pressure (hPa),Sample flow (lpm),Bypass flow (lpm),Sample temperature (°C),Ambient temperature (°C),ASC tube jacket temperature (°C),LED temperature (°C),Box temperature (°C),Sample RH (%),Span deviation,Mass concentration (μg/m³),Mass concentration (μg/m³),Mass concentration (μg/m³)
DateTimeUTC,F1_M11,P_M11,Q1_M11,Q2_M11,T1_M11,T2_M11,T3_M11,T4_M11,T5_M11,U1_M11,ZSPAN_M11,X2_M11,X0_M11,X1_M11
2021-11-30 18:00:00,,0831.4,4.99,0.00,27.0,26.3,00.0,35.9,28.8,13.2,0000.0,0002.61,0010.68,0001.62
2021-11-30 18:01:00,,0831.3,5.00,0.00,27.0,26.3,00.0,36.0,28.8,13.2,0000.0,0002.62,0010.57,0001.64
2021-11-30 18:02:00,,0831.2,5.00,0.00,27.0,26.3,00.0,36.0,28.8,13.0,0000.0,0002.63,0010.52,0001.66
2021-11-30 18:03:00,,0831.2,4.99,0.00,27.0,26.3,00.0,35.9,28.8,13.0,0000.0,0002.64,0009.20,0001.66
2021-11-30 18:04:00,,0831.2,5.00,0.00,27.0,26.3,00.0,36.0,28.8,13.1,0000.0,0002.70,0009.93,0001.67
2021-11-30 18:05:00,,0831.0,5.00,0.00,27.0,26.3,00.0,36.0,28.8,13.2,0000.0,0002.62,0009.17,0001.66
2021-11-30 18:06:00,,0831.0,5.00,0.00,27.0,26.3,00.0,36.0,28.8,13.3,0000.0,0002.60,0009.61,0001.65
2021-11-30 18:07:00,,0831.0,5.00,0.00,27.0,26.3,00.0,36.0,28.8,13.2,0000.0,0002.64,0010.16,0001.65
2021-11-30 18:08:00,,0830.9,5.00,0.00,27.0,26.3,00.0,36.0,28.8,13.3,0000.0,0002.64,0010.08,0001.65
2021-11-30 18:09:00,,0830.9,5.01,0.00,27.0,26.3,00.0,36.0,28.8,13.2,0000.0,0002.70,0010.10,0001.68
2021-11-30 18:10:00,,0830.9,4.99,0.00,27.0,26.3,00.0,36.0,28.8,13.3,0000.0,0002.78,0010.34,0001.71
2021-11-30 18:11:00,,0830.9,5.00,0.00,27.0,26.3,00.0,36.0,28.8,13.3,0000.0,0002.82,0010.56,0001.72
2021-11-30 18:12:00,,0830.8,5.01,0.00,27.0,26.3,00.0,36.0,28.8,13.3,0000.0,0002.82,0010.28,0001.74
2021-11-30 18:13:00,,0830.7,5.02,0.00,27.0,26.3,00.0,36.0,28.8,13.3,0000.0,0002.83,0010.18,0001.77
2021-11-30 18:14:00,,0830.8,4.99,0.00,27.0,26.3,00.0,36.0,28.8,13.3,0000.0,0002.91,0010.48,0001.80
2021-11-30 18:15:00,,0830.8,5.00,0.00,27.0,26.3,00.0,36.0,28.8,13.3,0000.0,0003.04,0009.99,0001.83
2021-11-30 18:16:00,,0830.8,5.01,0.00,27.0,26.3,00.0,36.0,28.8,13.3,0000.0,0003.11,0009.79,0001.88
2021-11-30 18:17:00,,0830.8,4.99,0.00,27.0,26.3,00.0,36.0,28.8,13.3,0000.0,0003.17,0009.03,0001.91
2021-11-30 18:18:00,,0830.7,5.01,0.00,27.1,26.3,00.0,36.0,28.8,13.4,0000.0,0003.19,0008.94,0001.92
2021-11-30 18:19:00,,0830.7,5.00,0.00,27.1,26.4,00.0,36.0,28.9,13.4,0000.0,0003.18,0009.43,0001.91
2021-11-30 18:20:00,,0830.7,4.98,0.00,27.1,26.4,00.0,36.0,28.8,13.4,0000.0,0003.20,0009.50,0001.90
2021-11-30 18:21:00,,0830.6,5.01,0.00,27.1,26.4,00.0,36.0,28.9,13.3,0000.0,0003.20,0009.34,0001.91
2021-11-30 18:22:00,,0830.6,4.99,0.00,27.1,26.4,00.0,36.0,28.9,13.3,0000.0,0003.20,0010.02,0001.93
2021-11-30 18:23:00,,0830.5,5.01,0.00,27.1,26.4,00.0,36.0,28.8,13.4,0000.0,0003.24,0010.46,0001.94
2021-11-30 18:24:00,,0830.5,4.99,0.00,27.1,26.4,00.0,36.0,28.8,13.4,0000.0,0003.26,0011.44,0001.95
2021-11-30 18:25:00,,0830.4,5.01,0.00,27.1,26.4,00.0,36.0,28.8,13.3,0000.0,0003.26,0011.75,0001.96
2021-11-30 18:26:00,,0830.4,4.99,0.00,27.1,26.3,00.0,36.0,28.9,13.3,0000.0,0003.21,0011.51,0001.97
2021-11-30 18:27:00,,0830.3,4.97,0.00,27.1,26.4,00.0,36.0,28.9,13.3,0000.0,0003.20,0011.86,0001.99
2021-11-30 18:28:00,,0830.4,4.98,0.00,27.1,26.4,00.0,36.0,28.8,13.4,0000.0,0003.19,0011.71,0002.01
2021-11-30 18:29:00,,0830.3,5.01,0.00,27.1,26.4,00.0,36.0,28.9,13.3,0000.0,0003.18,0011.68,0002.04
2021-11-30 18:30:00,,0830.4,5.01,0.00,27.1,26.4,00.0,36.0,28.9,13.3,0000.0,0003.18,0011.21,0002.09
2021-11-30 18:31:00,,0830.3,4.99,0.00,27.1,26.4,00.0,36.1,28.9,13.3,0000.0,0003.19,0011.90,0002.12
2021-11-30 18:32:00,,0830.2,5.01,0.00,27.1,26.4,00.0,36.1,28.9,13.3,0000.0,0003.20,0012.30,0002.15
2021-11-30 18:33:00,,0830.1,5.00,0.00,27.1,26.4,00.0,36.1,28.9,13.2,0000.0,0003.20,0011.76,0002.16
2021-11-30 18:34:00,,0830.1,5.00,0.00,27.1,26.4,00.0,36.1,28.9,13.3,0000.0,0003.22,0011.90,0002.18
2021-11-30 18:35:00,,0830.1,5.02,0.00,27.2,26.4,00.0,36.1,28.9,13.3,0000.0,0003.24,0011.20,0002.20
2021-11-30 18:36:00,,0830.1,5.01,0.00,27.2,26.5,00.0,36.1,28.9,13.3,0000.0,0003.27,0011.15,0002.21
2021-11-30 18:37:00,,0830.1,5.00,0.00,27.2,26.4,00.0,36.1,29.0,13.2,0000.0,0003.32,0011.38,0002.22
2021-11-30 18:38:00,,0830.1,5.00,0.00,27.2,26.4,00.0,36.1,28.9,13.3,0000.0,0003.37,0011.20,0002.23
2021-11-30 18:39:00,,0830.0,5.00,0.00,27.2,26.4,00.0,36.1,28.9,13.3,0000.0,0003.40,0011.23,0002.24
2021-11-30 18:40:00,,0829.9,4.99,0.00,27.2,26.4,00.0,36.1,28.9,13.3,0000.0,0003.42,0011.24,0002.26
2021-11-30 18:41:00,,0829.9,4.99,0.00,27.2,26.4,00.0,36.1,28.9,13.3,0000.0,0003.42,0011.28,0002.27
2021-11-30 18:42:00,,0829.9,5.02,0.00,27.2,26.4,00.0,36.1,29.0,13.3,0000.0,0003.46,0010.91,0002.29
2021-11-30 18:43:00,,0829.8,4.99,0.00,27.2,26.4,00.0,36.1,29.0,13.3,0000.0,0003.51,0010.44,0002.31
2021-11-30 18:44:00,,0829.9,5.00,0.00,27.2,26.5,00.0,36.1,28.9,13.2,0000.0,0003.57,0010.31,0002.34
2021-11-30 18:45:00,,0829.8,5.00,0.00,27.2,26.5,00.0,36.1,28.9,13.2,0000.0,0003.61,0010.63,0002.37
2021-11-30 18:46:00,,0829.8,5.01,0.00,27.2,26.5,00.0,36.1,28.9,13.2,0000.0,0003.65,0010.35,0002.39
2021-11-30 18:47:00,,0829.7,4.99,0.00,27.2,26.5,00.0,36.1,28.9,13.2,0000.0,0003.70,0010.11,0002.43
2021-11-30 18:48:00,,0829.8,5.00,0.00,27.2,26.5,00.0,36.1,28.9,13.2,0000.0,0003.74,0011.39,0002.47
2021-11-30 18:49:00,,0829.7,5.00,0.00,27.2,26.5,00.0,36.1,28.9,13.2,0000.0,0003.76,0012.07,0002.50
2021-11-30 18:50:00,,0829.8,5.01,0.00,27.2,26.5,00.0,36.1,28.9,13.3,0000.0,0003.79,0012.84,0002.52
2021-11-30 18:51:00,,0829.6,5.01,0.00,27.2,26.5,00.0,36.2,29.0,13.3,0000.0,0003.79,0013.19,0002.53
2021-11-30 18:52:00,,0829.6,4.99,0.00,27.2,26.5,00.0,36.2,29.0,13.3,0000.0,0003.79,0013.77,0002.52
2021-11-30 18:53:00,,0829.6,5.00,0.00,27.2,26.5,00.0,36.2,29.0,13.4,0000.0,0003.82,0014.54,0002.52
2021-11-30 18:54:00,,0829.5,5.01,0.00,27.2,26.5,00.0,36.2,29.0,13.4,0000.0,0003.82,0014.98,0002.54
2021-11-30 18:55:00,,0829.6,5.00,0.00,27.2,26.5,00.0,36.2,29.1,13.4,0000.0,0003.79,0014.73,0002.53
2021-11-30 18:56:00,,0829.6,4.99,0.00,27.3,26.6,00.0,36.2,29.1,13.4,0000.0,0003.75,0014.55,0002.51
2021-11-30 18:57:00,,0829.6,5.02,0.00,27.3,26.6,00.0,36.2,29.0,13.4,0000.0,0003.75,0014.85,0002.50
2021-11-30 18:58:00,,0829.6,4.99,0.00,27.3,26.6,00.0,36.2,29.1,13.4,0000.0,0003.73,0014.65,0002.49
2021-11-30 18:59:00,,0829.5,4.99,0.00,27.3,26.6,00.0,36.2,29.1,13.4,0000.0,0003.70,0013.48,0002.47
